Other Public Products
Issued by NWS Grand Forks, ND

Home | Current Version | Previous Version | Text Only | Print | Product List | Glossary Off
Versions: 1 2 3 4 5 6 7 8 9 10 11 12 13 14 15 16 17 18 19 20 21 22 23 24 25 26 27 28 29 30 31 32 33 34 35 36 37 38 39 40 41 42 43 44 45 46 47 48 49 50

000
FPUS83 KFGF 010710
OPUFGF
PRAIRIE TO PINES WEATHER ROUNDUP
NATIONAL WEATHER SERVICE EASTERN NORTH DAKOTA/GRAND FORKS ND
200 AM CDT WED JUL 01 2015

 **SATELLITE DATA USED TO AUGMENT SKY COVER AT AUTOMATED STATIONS**
 *****  WEATHER ACROSS EASTERN NORTH DAKOTA  *****

CITY           SKY/WX    TMP DP  RH WIND       PRES   REMARKS
GRAND FORKS    MOCLDY    61  58  90 E3        29.92R
GRAND FORKS AF PTCLDY    59  59 100 NE1       29.92S
GRAND CITY NWS   N/A     61 N/A N/A MISG        N/A
BUXTON         NOT AVBL
DEVILS LAKE    PTCLDY    64  55  72 S6        29.92S
FARGO          CLOUDY    65  60  84 CALM      29.90F
WAHPETON ARPT  CLOUDY    63  59  88 CALM      29.92F
$$

 *****  WEATHER ACROSS CENTRAL AND WESTERN NORTH DAKOTA  *****

CITY           SKY/WX    TMP DP  RH WIND       PRES   REMARKS
JAMESTOWN      LGT RAIN  64  61  90 SE9       29.90F
BISMARCK       CLEAR     64  63  96 SE10      29.90S FOG
MINOT          PTCLDY    60  58  92 NW5       29.92R FOG
MINOT AFB      FOG       64  64 100 W5        29.91S VSB 1/4
GARRISON         N/A     61  60  97 E3        29.91S
WILLISTON      MOCLDY    63  60  90 N7        29.94R FOG
DICKINSON      CLOUDY    63  61  93 E12       29.90S FOG
HETTINGER      PTCLDY    62  59  90 E8        29.92S FOG
$$

 *****  OTHER OBSERVATIONS NORTHEAST NORTH DAKOTA  *****

CITY           SKY/WX    TMP DP  RH WIND       PRES   REMARKS
WALHALLA       FAIR      59  59 100 MISG      29.94R FOG
LANGDON        FAIR      57  57 100 CALM      29.96R
CAVALIER       FAIR      59  57  94 CALM      29.93R
GRAFTON        FAIR      59  59 100 CALM      29.94R
CANDO          FAIR      59  57  94 CALM      29.94S
FORT TOTTEN      N/A     63  58  84 SE5       29.95S
ROLLA          CLOUDY    55  55 100 CALM      29.96S
RUGBY          NOT AVBL
 ***** THE ABOVE OBSERVATIONS ARE NON NWS ARE NOT QUALITY
        CONTROLLED AND MAY MIS-REPORT RAIN FOR SNOW...
$$

 *****  OTHER OBSERVATIONS SOUTHEAST NORTH DAKOTA *****

CITY           SKY/WX    TMP DP  RH WIND       PRES   REMARKS
COOPERSTOWN    NOT AVBL
VALLEY CITY    LGT RAIN  64  64 100 SE5       29.94S
OAKES          LGT RAIN  63  63 100 E7        29.93S
GWINNER        NOT AVBL
SHEYENNE NWR     N/A     64  63  95 W2        29.95S
BUFFALO        NOT AVBL
WYNDMERE       NOT AVBL
 ***** THE ABOVE OBSERVATIONS ARE NON NWS ARE NOT QUALITY
       CONTROLLED AND MAY MIS-REPORT RAIN FOR SNOW...
$$

  *****  WEATHER ACROSS NORTHERN MINNESOTA  *****

CITY           SKY/WX    TMP DP  RH WIND       PRES   REMARKS
FLAG ISLAND    PTCLDY    66  57  72 S9        29.94S
WARROAD        MOCLDY    59  55  88 S5        29.96S
ROSEAU         PTCLDY    57  54  88 CALM      29.95S
HALLOCK        PTCLDY    61  57  88 CALM      29.93R
THF RVR FALLS  MOCLDY    61  54  77 CALM      29.95S
HALSTAD        NOT AVBL
FOSSTON        MOCLDY    55  50  82 CALM      29.95S
BAUDETTE       MOCLDY    56  52  86 SE3       29.95S
WASKISH        MOCLDY    55  52  88 CALM      29.96S
CROOKSTON      PTCLDY    61  54  77 CALM      29.94R
$$
  *****  WEATHER ACROSS CENTRAL AND WEST MINNESOTA  *****

CITY           SKY/WX    TMP DP  RH WIND       PRES   REMARKS
BEMIDJI        MOCLDY    56  53  88 CALM      29.96S
PARK RAPIDS    CLOUDY    65  57  75 E3        29.95S
WADENA           N/A     63  57  82 E3        29.95S
DETROIT LAKES  CLOUDY    64  59  82 E3        29.95S
MOORHEAD       CLOUDY    64  63  94 CALM      29.92F
FERGUS FALLS   CLOUDY    66  61  82 CALM      29.92F
ELBOW LAKE     FAIR      64  62  94 S3        29.93S
MORRIS MN      MOCLDY    64  61  88 E3        29.93R
STAPLES        CLOUDY    63  55  77 S5        29.95S
WHEATON        MOCLDY    61  59  94 CALM      29.94S
$$
  *****  WEATHER ELSEWHERE ACROSS MINNESOTA  *****

CITY           SKY/WX    TMP DP  RH WIND       PRES   REMARKS
DULUTH         CLEAR     49  46  90 E6        29.99S
INTRNTL FALLS  PTCLDY    47  45  93 CALM      29.97S
ELY            CLEAR     48  46  93 CALM      29.99F
CLOQUET        CLEAR     48  46  93 CALM      29.99S
BRAINERD       MOCLDY    60  53  77 SE5       29.97R
HIBBING        PTCLDY    47  45  93 CALM      29.99F
ALEXANDRIA     MOCLDY    65  58  78 SE6       29.96R
SAINT CLOUD    CLOUDY    62  56  80 SE5       29.96R
MINNEAPOLIS    CLOUDY    62  51  67 E8        29.96S
$$

  *****  WEATHER ACROSS SOUTH DAKOTA  *****

CITY           SKY/WX    TMP DP  RH WIND       PRES   REMARKS
SIOUX FALLS    PTCLDY    65  62  90 E7        29.92R
BROOKINGS      CLOUDY    64  59  82 SE9       29.93S
WATERTOWN      MOCLDY    64  60  87 SE6       29.90S
HURON          CLOUDY    67  67 100 S5        29.87S FOG
SISSETON         N/A     60  59  96 CALM      29.91S
ABERDEEN       CLOUDY    66  63  90 E7        29.89F FOG
MITCHELL       MOCLDY    66  65  96 SE3       29.88F
PIERRE         CLOUDY    65  64  97 SE8       29.84F
MOBRIDGE       TSTM      66  66 100 NE20G28   29.87R FOG
RAPID CITY     PTCLDY    68  66  93 CALM      29.93R
$$

  *****  SOME WEATHER IN NEARBY STATES *****

CITY           SKY/WX    TMP DP  RH WIND       PRES   REMARKS
GLASGOW MT     NOT AVBL
GREAT FALLS MT CLEAR     67  52  58 E6        30.06R
CHEYENNE WY    MOCLDY    60  56  86 W6        30.17F
SCOTTSBLUFF NE PTCLDY    69  58  67 NW10      30.01F
OMAHA NE       CLOUDY    69  66  90 SE12      29.88F
DES MOINES IA  CLOUDY    72  64  76 E7        29.91S
DAVENPORT IA   MOCLDY    64  61  90 CALM      29.91S
CHICAGO IL     CLOUDY    57  51  80 N7        29.93R
EAU CLAIRE WI  CLEAR     52  47  83 CALM      29.97R
LA CROSSE WI   CLEAR     59  51  75 CALM      29.95R
$$

  *****  SOME NATIONAL WEATHER *****

CITY           SKY/WX    TMP DP  RH WIND       PRES   REMARKS
LA GUARDIA NY  CLOUDY    73  69  87 S10       29.79S
RALEIGH NC     MOCLDY    70  66  87 SW9       29.91F
ATLANTA GA     PTCLDY    71  64  78 W10       30.03F
NEW ORLEANS LA CLOUDY    75  69  81 S7        30.08S
OKLAHOMA CITY  PTCLDY    76  70  82 S8        29.97R
ALBUQUERQUE NM CLEAR     78  43  28 SE8       30.16S
SALT LAKE CITY CLOUDY    80  56  43 W6        30.11R
LOS ANGELES CA PTCLDY    67  63  87 W12       29.87R
BOISE ID       CLEAR     81  49  32 CALM      29.95R
SEATTLE WA     PTCLDY    71  48  43 NE13      30.07R
$$

*** WEATHER ACROSS MANITOBA...SASKATCHEWAN AND ONTARIO ***
                ***ONTARIO***

CITY           SKY/WX    TMP DP  RH WIND       PRES   REMARKS
GERALDTON      CLEAR     41  37  87 CALM      30.00S
THUNDER BAY    CLEAR     43  43 100 W2          N/A
SIOUX LOOKOUT  NOT AVBL
TORONTO        CLOUDY    61  61 100 SW5       29.72F FOG
BIG TROUT LK   CLEAR     55  45  67 S7        29.93S
PICKLE LAKE    NOT AVBL
DRYDEN         CLEAR     57  54  88 S7        29.97F
KENORA         PTCLDY    59  54  82 S6        29.96F
$$
                *** MANITOBA***

CITY           SKY/WX    TMP DP  RH WIND       PRES   REMARKS
BRANDON        PTCLDY    57  55  94 NE5       29.94S
DAUPHIN        CLEAR     55  54  94 W7        29.92S
ISLAND LAKE    LGT RAIN  61  55  82 VRB2      29.90F
PILOT MOUND      N/A     57  55  94 SE3         N/A
THE PAS        CLOUDY    66  63  88 W7        29.86R
THOMPSON       PTCLDY    50  48  93 CALM      29.87F
WINNIPEG       MOCLDY    61  55  82 E3        29.94R
LYNN LAKE        N/A    N/A N/A N/A MISG        N/A
CHURCHILL      PTCLDY    52  45  76 S8        29.90S
GILLAM         PTCLDY    55  54  94 E3        29.88S
$$
                ***SASKATCHEWAN***

CITY           SKY/WX    TMP DP  RH WIND       PRES   REMARKS
ESTEVAN        CLOUDY    59  59 100 NW5       29.95S SMOKE
KINDERSLEY     MOCLDY    57  55  94 S2        30.00F SMOKE
LLOYDMINSTER   CLOUDY    61  55  82 SW7       29.98S
PRINCE ALBERT  MOCLDY    59  59 100 W2        29.91R
REGINA         PTCLDY    55  55 100 NW5       29.98R SMOKE



USA.gov is the U.S. government's official web portal to all federal, state and local government web resources and services.